Вернуться в каталог

STARLINK-30222

АктивенСвязьVLEO
NORAD 57409·PAYLOAD·🇺🇸 United States

Запущен Jul 20, 2023 с Vandenberg Space Force Base

Loading…

Ближайшие Пролёты (ближайшие 24 часа)

TLE

СвежийSource: CelesTrak SupGP

Эпоха: Sep 14, 2026, 21:20 UTC

1 57409C 23102F   26257.88937500  .00027409  00000+0  99316-3 0  2574
2 57409  43.0031 259.9937 0001575 268.0591 200.4505 15.27551695    14

Отслеживайте STARLINK-30222 в реальном времени с AllMySat

Download on the App Store